This is the latest recevied weather packets stored in our database for station/object OH2NJR. If no packets are shown the sender has not sent any weather packets the latest 10 day(s).
| Time | Temp. | Humidity | Pressure | Rain* | Wind** | Luminosity | Snow |
|---|---|---|---|---|---|---|---|
| 1777064809 | 5.56° C | 56% | 1003.6 hPa | 0 mm | - | - | - |
| 1777063703 | 6.11° C | - | - | 0 mm | - | - | - |
| 1777063700 | 6.11° C | 49% | 1004.4 hPa | 0 mm | - | - | - |
| 1777062516 | 6.11° C | - | - | 0 mm | - | - | - |
| 1777062513 | 6.11° C | 48% | 1004.4 hPa | 0 mm | - | - | - |
| 1777061471 | 6.67° C | 46% | 1004.3 hPa | 0 mm | - | - | - |
| 1777060429 | 6.67° C | 45% | 1004.4 hPa | 0 mm | - | - | - |
| 1777059474 | 7.22° C | - | - | 0 mm | - | - | - |
| 1777059472 | 7.22° C | - | - | 0 mm | - | - | - |
| 1777059468 | 7.22° C | 44% | 1004.4 hPa | 0 mm | - | - | - |
| 1777058409 | 7.78° C | 42% | 1004.6 hPa | 0 mm | - | - | - |
| 1777057369 | 7.78° C | 42% | 1004.6 hPa | 0 mm | - | - | - |
| 1777056288 | 7.78° C | 42% | 1004.6 hPa | 0 mm | - | - | - |
| 1777056284 | 7.78° C | 42% | 1004.6 hPa | 0 mm | - | - | - |
| 1777055298 | 8.33° C | 41% | 1004.6 hPa | 0 mm | - | - | - |
| 1777055294 | 8.33° C | 41% | 1004.6 hPa | 0 mm | - | - | - |
| 1777054127 | 8.33° C | 39% | 1004.7 hPa | 0 mm | - | - | - |
| 1777053059 | 8.89° C | 37% | 1004.8 hPa | 0 mm | - | - | - |
| 1777051961 | 8.89° C | 36% | 1004.7 hPa | 0 mm | - | - | - |
| 1777051957 | 8.89° C | 36% | 1004.7 hPa | 0 mm | - | - | - |
| 1777050914 | 9.44° C | 34% | 1004.7 hPa | 0 mm | - | - | - |
| 1777049814 | 11.11° C | 31% | 1004.5 hPa | 0 mm | - | - | - |
| 1777048759 | 11.11° C | 30% | 1004.6 hPa | 0 mm | - | - | - |
| 1777047799 | 11.11° C | 30% | 1004.7 hPa | 0 mm | - | - | - |
| 1777046839 | 11.67° C | 28% | 1004.6 hPa | 0 mm | - | - | - |
* Rain latest hour (hover to see other rain measurements)
** Current wind speed in m/s (hover to see current wind gust speed)